Wallingford, CT

4:14 PM EDT on September 28, 2016 (GMT -0400)
Meriden Markham Municipal

Weather History for KMMK - April, 2014

Change the Weather History Date:

Monday, April 21, 2014

  Actual Average (KHVN) Record (KHVN)
Temperature  
Mean Temperature 46 °F -  
Max Temperature 64 °F 57 °F 84 °F (1976)
Min Temperature 28 °F 41 °F 30 °F (1981)
Degree Days  
Heating Degree Days 19    
Moisture  
Dew Point 29 °F    
Average Humidity 56    
Maximum Humidity 92    
Minimum Humidity 11    
Precipitation  
Precipitation 0.00 in - - ()
Sea Level Pressure  
Sea Level Pressure 30.10 in    
Wind  
Wind Speed 3 mph (South)    
Max Wind Speed 15 mph    
Max Gust Speed 22 mph    
Visibility 10 miles    
Events      
Averages and records for this station are not official NWS values.
T = Trace of Precipitation, MM = Missing Value Source: NWS Daily Summary

Daily Weather History Graph

Daily Weather History Graph

Search for Another Location

Airport or City:

Trip Planner

Search our weather history database for the weather conditions in past years. The results will help you decide how hot, cold, wet, or windy it might be!

Date:

Astronomy

Apr. 21, 2014 Rise Set
Actual Time 6:02 AM EDT 7:38 PM EDT
Civil Twilight 5:33 AM EDT 8:07 PM EDT
Nautical Twilight 4:57 AM EDT 8:43 PM EDT
Astronomical Twilight 4:20 AM EDT 9:20 PM EDT
Moon 1:07 AM EDT (4/21) 11:24 AM EDT (4/21)
Length of Visible Light 14h 34m
Length of Day
13h 35m
Waning Gibbous, 58% of the Moon is Illuminated
Apr 21
Waning Gibbous
Apr 22
Last Quarter
Apr 29
New
May 6
First Quarter
May 14
Full

Hourly Weather History & Observations

Time (EDT) Temp. Dew Point Humidity Pressure Visibility Wind Dir Wind Speed Gust Speed Precip Events Conditions
12:53 AM 36.0 °F 28.9 °F 76% 30.32 in 10.0 mi Calm Calm - N/A   Clear
1:53 AM 33.1 °F 28.9 °F 85% 30.30 in 10.0 mi Calm Calm - N/A   Clear
2:53 AM 33.1 °F 28.0 °F 82% 30.28 in 10.0 mi Calm Calm - N/A   Clear
3:53 AM 32.0 °F 28.0 °F 85% 30.27 in 10.0 mi Calm Calm - N/A   Clear
4:53 AM 30.0 °F 27.0 °F 88% 30.25 in 10.0 mi Calm Calm - N/A   Clear
5:53 AM 28.9 °F 27.0 °F 92% 30.25 in 7.0 mi Calm Calm - N/A   Clear
6:53 AM 32.0 °F 28.9 °F 88% 30.25 in 8.0 mi Calm Calm - N/A   Clear
7:53 AM 37.9 °F 32.0 °F 79% 30.24 in 10.0 mi Calm Calm - N/A   Clear
8:53 AM 46.0 °F 32.0 °F 58% 30.22 in 10.0 mi Calm Calm - N/A   Clear
9:53 AM 51.1 °F 27.0 °F 39% 30.19 in 10.0 mi Variable 4.6 mph - N/A   Clear
10:53 AM 55.9 °F 23.0 °F 28% 30.17 in 10.0 mi SSW 4.6 mph - N/A   Clear
11:53 AM 57.9 °F 21.0 °F 24% 30.13 in 10.0 mi SE 8.1 mph - N/A   Clear
12:53 PM 62.1 °F 19.9 °F 20% 30.09 in 10.0 mi South 8.1 mph - N/A   Clear
1:53 PM 63.0 °F 28.0 °F 27% 30.06 in 10.0 mi South 10.4 mph 19.6 mph N/A   Clear
2:53 PM 63.0 °F 19.9 °F 19% 30.02 in 10.0 mi South 13.8 mph - N/A   Clear
3:53 PM 64.9 °F 8.1 °F 11% 29.99 in 10.0 mi South 10.4 mph - N/A   Clear
4:53 PM 63.0 °F 35.1 °F 35% 29.97 in 10.0 mi South 15.0 mph 21.9 mph N/A   Clear
5:53 PM 61.0 °F 35.1 °F 38% 29.96 in 10.0 mi South 11.5 mph - N/A   Clear
6:53 PM 57.9 °F 37.0 °F 46% 29.94 in 10.0 mi South 8.1 mph - N/A   Clear
7:53 PM 54.0 °F 37.0 °F 53% 29.93 in 10.0 mi SSW 5.8 mph - N/A   Clear
8:53 PM 52.0 °F 37.0 °F 57% 29.93 in 10.0 mi South 4.6 mph - N/A   Clear
9:53 PM 48.9 °F 37.9 °F 66% 29.92 in 10.0 mi South 6.9 mph - N/A   Clear
10:53 PM 46.9 °F 39.0 °F 74% 29.90 in 10.0 mi South 5.8 mph - N/A   Clear
11:53 PM 46.9 °F 39.0 °F 74% 29.89 in 10.0 mi SSE 3.5 mph - N/A   Clear